Regional Weather Roundup
Issued by NWS Sioux Falls, SD

Home | Current Version | Previous Version | Graphics & Text | Print | Product List | Glossary On
Versions: 1 2 3 4 5 6 7 8 9 10 11 12 13 14 15 16 17 18 19 20 21 22 23 24 25 26 27 28 29 30 31 32 33 34 35 36 37 38 39 40 41 42 43 44 45 46 47 48 49 50
000
ASUS43 KFSD 180602
RWRFSD

WEATHER ROUNDUP FOR SE SOUTH DAKOTA/SW MINNESOTA/NW IOWA
NATIONAL WEATHER SERVICE SIOUX FALLS SD
100 AM CDT THU SEP 18 2014

NOTE: "FAIR" INDICATES FEW OR NO CLOUDS BELOW 12,000 FEET WITH NO
SIGNIFICANT WEATHER AND OR OBSTRUCTIONS TO VISIBILITY.


SDZ038>040-050-052>070-180700-
SOUTHEAST SOUTH DAKOTA

CITY           SKY/WX    TMP DP  RH WIND       PRES   REMARKS
CHAMBERLAIN    MOCLDY    59  54  83 SE6       29.96F
6HR MIN TEMP:  57; 6HR MAX TEMP:  71;

HURON          PTCLDY    59  53  80 SE6       29.96R
6HR MIN TEMP:  59; 6HR MAX TEMP:  73; 6HR PCP: TRACE;

MADISON        FAIR      50  50 100 E7        29.99F
MITCHELL       PTCLDY    59  56  89 SE7       29.95F
6HR MIN TEMP:  59; 6HR MAX TEMP:  75; 6HR PCP: TRACE;

SIOUX FALLS    PTCLDY    59  54  83 E5        29.98F
6HR MIN TEMP:  58; 6HR MAX TEMP:  73;

WINNER         FAIR      62  56  80 E8        29.96F
YANKTON        PTCLDY    57  54  88 CALM      29.97S
$$

MNZ071-072-080-081-089-090-097-098-180700-
SOUTHWEST MINNESOTA

CITY           SKY/WX    TMP DP  RH WIND       PRES   REMARKS
FAIRMONT       CLEAR     54  46  76 CALM      30.01S
JACKSON        CLEAR     54  50  87 CALM      30.02S
LUVERNE        PTCLDY    55  52  88 CALM      30.01S
MARSHALL       CLEAR     52  48  87 CALM      30.00S
6HR MIN TEMP:  52; 6HR MAX TEMP:  72;

MONTEVIDEO     CLEAR     54  52  94 S5        30.01S
PIPESTONE      MOCLDY    57  52  82 SE5       30.01S
REDWOOD FALLS  CLEAR     57  53  86 E3        30.01R
TRACY          CLEAR     59  53  80 CALM      30.01S
WINDOM         CLEAR     57  54  88 CALM      30.02R
WORTHINGTON    PTCLDY    52  50  93 CALM      30.02S
$$

IAZ001>003-012>014-020>022-031-032-NEZ013-014-SDZ071-180700-
NORTHWEST IOWA

CITY           SKY/WX    TMP DP  RH WIND       PRES   REMARKS
CHEROKEE       PTCLDY    56  54  95 CALM      30.01R
DENISON        PTCLDY    59  57  94 SE6       29.98S
ESTHERVILLE    CLEAR     52  50  93 S3        30.01S
LE MARS          N/A     59  55  88 CALM      30.00R
ORANGE CITY    PTCLDY    61  54  77 CALM      30.00S
SHELDON        MOCLDY    55  54  94 CALM      30.00R
SIOUX CITY     PTCLDY    60  57  89 SE6       29.99R
6HR MIN TEMP:  59; 6HR MAX TEMP:  76;

SPENCER        CLEAR     54  50  86 E7        30.01R
6HR MIN TEMP:  53; 6HR MAX TEMP:  70;

STORM LAKE     PTCLDY    57  55  94 SE7       30.01R
$$

ABBREVIATIONS USED IN REMARKS
   TC - TEMPERATURE IN CELSIUS
  WCI - WIND CHILL INDEX
   HX - HEAT INDEX
  VSB - VISIBILITY




USA.gov is the U.S. government's official web portal to all federal, state and local government web resources and services.